DECAYED

STARLINK-34671, 65033 (Decayed)

Orbit data source: Space-Track

STARLINK-34671, 65033 was a payload satellite owned by SpaceX/Seattle (US) in LEO that was launched on Wed, 30 Jul 2025 UTC via an FALCON 9 launch vehicle from the Air Force Eastern Test Range (AFETR). Payload-class satellites include a variety of spacecraft equipped with specific instruments for various scientific and technological missions. These include communications satellites like Starlink; space stations such as the ISS; scientific satellites like the Hubble; Earth observation satellites from companies like Planet Labs, Umbra, and HawkEye 360; GPS; miniature CubeSats for education and research; and military/defense satellites.

Not visible in the next 10 days
Identifier
65033, 2025-161U
Orbit
Decayed
Country
Flag of USUS
Related business
Manufacturer
SpaceX/Seattle
Mission
Decayed Commercial Communications
Bus & Motor
STARLINK V2MO, Unknown motor
Mass
575 kg wet, ~530 kg dry
Launch date (UTC)
2025-07-30 (11 months ago)
Launch vehicle
FALCON 9
Launch site
Air Force Eastern Test Range (AFETR)
Object type
Payload
Rocket body
Debris
Shape & HBR
Box + 2 Pan, 17.7 m
Radar Cross Section
36.964 m², Large (>1 m²)

Expand to show TLE details & history
Last TLE update: 1 month ago

TLE from 1 month ago
0 STARLINK-34671
1 65033U 25161U   26138.98299620  .06182463  11817-4  32555-2 0  9991
2 65033  53.1492 313.1067 0008830 301.6089  58.4087 16.19320709 45199
Epoch: 2026-05-18T23:35Z
TLE epoch observation values (Epoch: 2026-05-18T23:35:30.871Z)
Latitude
-0.0001°
Longitude
82.56456°
Altitude
219.281 km
Speed
7.778 km/s
True Right ascension
20h 52m 25s
True Declination
0° 00' 00"
Sunlit
Object was in daylight at epoch
Visualization orbit readout
Latitude
Unknown
Longitude
Unknown
Altitude
Unknown
Speed
Unknown
Apparent Right ascension
Unknown
Apparent Declination
Unknown
Sunlit
N/A
Visualization observer readout
Local Sidereal Time
07:19:25
Azimuth
Unknown
Elevation
Unknown
Doppler factor
Unknown
Orbital elements
Apogee altitude
227.492 km
Perigee altitude
215.837 km
Semi-major axis
6,599.802 km
Eccentricity
0.00088
Inclination
53.1492°
RAAN
313.1067°
Arg. of periapsis
301.6089°
True anomaly
58.49494°
Mean anomaly
58.4087°
Eccentric anomaly
58.45181°
Mean motion
4.04806 °/min
Orbital period
88.93 mins
BSTAR
0.0032555
Loading maneuver chart data...
Computing Atmospheric mass density...
Loading historical data...
Loading historical data...
Loading historical data...
Loading historical data...
Loading historical data...
Loading historical data...
Loading historical data...

Documentation

Showing up to 5 results
|